Block Island, RI

5:55 PM EDT on August 23, 2016 (GMT -0400)
Block Island State

Weather History for KBID - February, 2014

Change the Weather History Date:

Tuesday, February 18, 2014

  Actual Average Record
Temperature  
Mean Temperature 32 °F -  
Max Temperature 42 °F 36 °F 55 °F (1981)
Min Temperature 23 °F 26 °F 0 °F (1979)
Degree Days  
Heating Degree Days 32    
Moisture  
Dew Point 24 °F    
Average Humidity 71    
Maximum Humidity 93    
Minimum Humidity 43    
Precipitation  
Precipitation 0.15 in - - ()
Sea Level Pressure  
Sea Level Pressure 30.10 in    
Wind  
Wind Speed 11 mph (SSE)    
Max Wind Speed 26 mph    
Max Gust Speed 34 mph    
Visibility 9 miles    
Events      
Averages and records for this station are not official NWS values.
T = Trace of Precipitation, MM = Missing Value Source: NWS Daily Summary

Daily Weather History Graph

Daily Weather History Graph

Search for Another Location

Airport or City:

Trip Planner

Search our weather history database for the weather conditions in past years. The results will help you decide how hot, cold, wet, or windy it might be!

Date:

Astronomy

Feb. 18, 2014 Rise Set
Actual Time 6:36 AM EST 5:24 PM EST
Civil Twilight 6:08 AM EST 5:52 PM EST
Nautical Twilight 5:36 AM EST 6:24 PM EST
Astronomical Twilight 5:04 AM EST 6:56 PM EST
Moon 9:17 PM EST (2/18) 8:05 AM EST (2/18)
Length of Visible Light 11h 43m
Length of Day
10h 47m
Waning Gibbous, 87% of the Moon is Illuminated
Feb 18
Waning Gibbous
Feb 22
Last Quarter
Mar 1
New
Mar 8
First Quarter
Mar 16
Full

Hourly Weather History & Observations

Time (EST) Temp. Windchill Dew Point Humidity Pressure Visibility Wind Dir Wind Speed Gust Speed Precip Events Conditions
12:15 AM 23.0 °F 15.8 °F 5.0 °F 46% 30.32 in 10.0 mi NE 5.8 mph - N/A   Clear
12:35 AM 24.8 °F 16.9 °F 6.8 °F 46% 30.31 in 10.0 mi ENE 6.9 mph - N/A   Clear
12:55 AM 26.6 °F 20.0 °F 6.8 °F 43% 30.33 in 10.0 mi East 5.8 mph - N/A   Clear
1:15 AM 24.8 °F - 5.0 °F 43% 30.33 in 10.0 mi Calm Calm - N/A   Clear
1:35 AM 24.8 °F 19.1 °F 6.8 °F 46% 30.33 in 10.0 mi SE 4.6 mph - N/A   Clear
1:55 AM 24.8 °F 19.1 °F 5.0 °F 43% 30.33 in 10.0 mi ESE 4.6 mph - N/A   Clear
2:15 AM 24.8 °F 17.9 °F 8.6 °F 50% 30.32 in 10.0 mi East 5.8 mph - N/A   Clear
2:35 AM 24.8 °F 16.9 °F 8.6 °F 50% 30.32 in 10.0 mi ESE 6.9 mph - N/A   Clear
2:55 AM 26.6 °F 19.1 °F 10.4 °F 51% 30.31 in 10.0 mi SE 6.9 mph - N/A   Clear
3:15 AM 26.6 °F 20.0 °F 10.4 °F 51% 30.30 in 10.0 mi ESE 5.8 mph - N/A   Clear
3:35 AM 26.6 °F 20.0 °F 12.2 °F 55% 30.30 in 10.0 mi SE 5.8 mph - N/A   Scattered Clouds
3:55 AM 28.4 °F 21.2 °F 12.2 °F 51% 30.28 in 10.0 mi ESE 6.9 mph - N/A   Mostly Cloudy
4:15 AM 28.4 °F 19.1 °F 14.0 °F 55% 30.26 in 10.0 mi ESE 10.4 mph 17.3 mph N/A   Partly Cloudy
4:35 AM 30.2 °F 22.6 °F 15.8 °F 55% 30.28 in 10.0 mi SE 8.1 mph - N/A   Clear
4:55 AM 30.2 °F 23.4 °F 15.8 °F 55% 30.29 in 10.0 mi SSE 6.9 mph - N/A   Mostly Cloudy
5:15 AM 30.2 °F 22.6 °F 17.6 °F 60% 30.27 in 10.0 mi SSE 8.1 mph - N/A   Mostly Cloudy
5:35 AM 32.0 °F 24.2 °F 17.6 °F 55% 30.27 in 10.0 mi SSE 9.2 mph - N/A   Overcast
5:55 AM 32.0 °F 23.6 °F 19.4 °F 60% 30.25 in 10.0 mi SSE 10.4 mph - N/A   Overcast
6:15 AM 33.8 °F 24.8 °F 19.4 °F 56% 30.23 in 10.0 mi SE 12.7 mph 17.3 mph N/A   Overcast
6:35 AM 33.8 °F 24.3 °F 19.4 °F 56% 30.24 in 10.0 mi SE 13.8 mph 18.4 mph N/A   Mostly Cloudy
6:55 AM 33.8 °F 23.9 °F 21.2 °F 60% 30.22 in 10.0 mi SE 15.0 mph - N/A   Mostly Cloudy
7:15 AM 33.8 °F 23.9 °F 21.2 °F 60% 30.20 in 10.0 mi SE 15.0 mph - N/A   Mostly Cloudy
7:35 AM 33.8 °F 23.5 °F 23.0 °F 65% 30.19 in 10.0 mi SE 16.1 mph - N/A   Mostly Cloudy
7:55 AM 35.6 °F 25.9 °F 23.0 °F 60% 30.20 in 10.0 mi SE 16.1 mph - N/A   Overcast
8:15 AM 35.6 °F 25.5 °F 24.8 °F 65% 30.20 in 10.0 mi SE 17.3 mph 23.0 mph N/A   Overcast
8:35 AM 35.6 °F 25.5 °F 24.8 °F 65% 30.20 in 10.0 mi ESE 17.3 mph - N/A   Mostly Cloudy
8:55 AM 35.6 °F 25.9 °F 24.8 °F 65% 30.18 in 10.0 mi ESE 16.1 mph 21.9 mph N/A   Overcast
9:15 AM 35.6 °F 25.2 °F 26.6 °F 70% 30.16 in 8.0 mi SE 18.4 mph 24.2 mph N/A   Overcast
9:35 AM 35.6 °F 24.5 °F 28.4 °F 75% 30.14 in 10.0 mi SE 20.7 mph 28.8 mph N/A   Overcast
9:55 AM 35.6 °F 24.8 °F 28.4 °F 75% 30.13 in 10.0 mi SE 19.6 mph 24.2 mph N/A   Overcast
10:15 AM 35.6 °F 24.5 °F 28.4 °F 75% 30.11 in 10.0 mi SE 20.7 mph 26.5 mph N/A   Overcast
10:35 AM 33.8 °F 21.6 °F 28.4 °F 81% 30.10 in 8.0 mi SE 23.0 mph 32.2 mph 0.01 in   Overcast
10:55 AM 33.8 °F 22.2 °F 28.4 °F 81% 30.10 in 3.0 mi SE 20.7 mph 26.5 mph 0.02 in   Overcast
11:15 AM 33.8 °F 22.5 °F 28.4 °F 81% 30.07 in 5.0 mi SE 19.6 mph 32.2 mph 0.03 in   Overcast
11:35 AM 33.8 °F 22.5 °F 30.2 °F 87% 30.05 in 8.0 mi SE 19.6 mph 28.8 mph 0.05 in   Overcast
11:55 AM 33.8 °F 21.0 °F 30.2 °F 87% 30.02 in 7.0 mi SE 25.3 mph 32.2 mph 0.06 in   Overcast
12:15 PM 33.8 °F 21.3 °F 30.2 °F 87% 30.01 in 3.0 mi SE 24.2 mph 34.5 mph 0.01 in   Overcast
12:35 PM 33.8 °F 20.8 °F 30.2 °F 87% 29.99 in 5.0 mi SE 26.5 mph 32.2 mph 0.02 in   Overcast
12:55 PM 33.8 °F 21.3 °F 30.2 °F 87% 29.96 in 7.0 mi ESE 24.2 mph 31.1 mph 0.04 in   Overcast
1:15 PM 35.6 °F 24.0 °F 32.0 °F 87% 29.93 in 6.0 mi ESE 23.0 mph 27.6 mph N/A   Overcast
1:35 PM 37.4 °F 27.8 °F 35.6 °F 93% 29.90 in 6.0 mi ESE 17.3 mph 23.0 mph 0.01 in   Overcast
1:55 PM 39.2 °F 29.3 °F 35.6 °F 87% 29.89 in 7.0 mi SE 20.7 mph 27.6 mph 0.02 in   Overcast
2:15 PM 39.2 °F 29.3 °F 37.4 °F 93% 29.87 in 5.0 mi SSE 20.7 mph 26.5 mph N/A   Overcast
2:35 PM 41.0 °F 30.7 °F 37.4 °F 87% 29.87 in 5.0 mi SSE 25.3 mph 32.2 mph 0.01 in   Overcast
2:55 PM 42.8 °F 34.5 °F 37.4 °F 81% 29.88 in 7.0 mi SSW 18.4 mph 27.6 mph 0.01 in   Overcast
3:15 PM 41.0 °F 32.8 °F 37.4 °F 87% 29.89 in 9.0 mi SW 16.1 mph 21.9 mph N/A   Mostly Cloudy
3:35 PM 39.2 °F 30.8 °F 35.6 °F 87% 29.89 in 10.0 mi WSW 15.0 mph 21.9 mph N/A   Mostly Cloudy
3:55 PM 37.4 °F 28.5 °F 33.8 °F 87% 29.88 in 10.0 mi West 15.0 mph - N/A   Mostly Cloudy
4:15 PM 35.6 °F 28.0 °F 32.0 °F 87% 29.89 in 10.0 mi West 10.4 mph 16.1 mph N/A   Mostly Cloudy
4:35 PM 35.6 °F 27.5 °F 30.2 °F 81% 29.89 in 10.0 mi WNW 11.5 mph 18.4 mph N/A   Scattered Clouds
4:55 PM 33.8 °F 25.3 °F 28.4 °F 81% 29.91 in 10.0 mi West 11.5 mph 19.6 mph N/A   Mostly Cloudy
5:15 PM 33.8 °F 26.4 °F 28.4 °F 81% 29.92 in 10.0 mi West 9.2 mph 18.4 mph N/A   Overcast
5:35 PM 33.8 °F 24.3 °F 28.4 °F 81% 29.92 in 10.0 mi West 13.8 mph 18.4 mph N/A   Overcast
5:55 PM 33.8 °F 24.8 °F 28.4 °F 81% 29.93 in 10.0 mi West 12.7 mph 18.4 mph N/A   Overcast
6:15 PM 33.8 °F 25.8 °F 28.4 °F 81% 29.95 in 10.0 mi West 10.4 mph 19.6 mph N/A   Overcast
6:35 PM 33.8 °F 25.8 °F 28.4 °F 81% 29.96 in 10.0 mi WNW 10.4 mph 16.1 mph N/A   Overcast
6:55 PM 33.8 °F 22.8 °F 28.4 °F 81% 29.97 in 10.0 mi West 18.4 mph 24.2 mph N/A   Overcast
7:15 PM 33.8 °F 24.3 °F 28.4 °F 81% 29.97 in 10.0 mi West 13.8 mph 26.5 mph N/A   Mostly Cloudy
7:35 PM 33.8 °F 23.9 °F 28.4 °F 81% 29.97 in 10.0 mi West 15.0 mph 21.9 mph N/A   Mostly Cloudy
7:55 PM 33.8 °F 22.8 °F 28.4 °F 81% 29.99 in 10.0 mi West 18.4 mph 21.9 mph N/A   Partly Cloudy
8:15 PM 33.8 °F 23.9 °F 26.6 °F 75% 30.00 in 10.0 mi West 15.0 mph 20.7 mph N/A   Clear
8:35 PM 32.0 °F 21.2 °F 26.6 °F 80% 30.02 in 10.0 mi West 16.1 mph 24.2 mph N/A   Clear
8:55 PM 32.0 °F 22.5 °F 24.8 °F 75% 30.02 in 10.0 mi West 12.7 mph 21.9 mph N/A   Clear
9:15 PM 32.0 °F 23.0 °F 26.6 °F 80% 30.03 in 10.0 mi West 11.5 mph - N/A   Clear
9:35 PM 32.0 °F 23.0 °F 26.6 °F 80% 30.04 in 10.0 mi West 11.5 mph 17.3 mph N/A   Clear
9:55 PM 32.0 °F 23.0 °F 24.8 °F 75% 30.05 in 10.0 mi WNW 11.5 mph 18.4 mph N/A   Clear
10:15 PM 32.0 °F 24.2 °F 24.8 °F 75% 30.06 in 10.0 mi WNW 9.2 mph 17.3 mph N/A   Clear
10:35 PM 32.0 °F 23.6 °F 24.8 °F 75% 30.06 in 10.0 mi West 10.4 mph 19.6 mph N/A   Clear
10:55 PM 30.2 °F 21.9 °F 24.8 °F 80% 30.05 in 10.0 mi WNW 9.2 mph 16.1 mph N/A   Clear
11:15 PM 32.0 °F 23.6 °F 24.8 °F 75% 30.06 in 10.0 mi WNW 10.4 mph - N/A   Clear
11:35 PM 32.0 °F 24.2 °F 24.8 °F 75% 30.07 in 10.0 mi West 9.2 mph - N/A   Clear
11:55 PM 32.0 °F 25.6 °F 24.8 °F 75% 30.08 in 10.0 mi West 6.9 mph - N/A   Clear